Simultaneous Nadir Overpasses (SNOs) Predictions

Prediction of SNOs between NOAA-19 and METOP-C Satellite Orbit:

Table of predicted SNOs for the next 14.0 days since TLE Epoch: 10/5/2024
Index Date (NOAA-19) Time (NOAA-19) Lat,Lon (NOAA-19) SZA (NOAA-19 ) Date (METOP-C) Time (METOP-C) Lat,Lon (METOP-C) SZA (METOP-C ) Distance(km) Time Diff (sec)
1 10/11/2024 05:38:04 60.13, 73.35 68.83 10/11/2024 05:39:13 60.13, 73.36 68.78 0.15 69
2 10/11/2024 06:28:17 -62.91,-117.17 108.83 10/11/2024 06:29:06 -62.92,-117.16 108.85 0.97 49
3 10/11/2024 07:18:43 64.45, 51.53 72.50 10/11/2024 07:19:17 64.46, 51.55 72.49 1.16 34
4 10/11/2024 08:09:01 -66.91,-138.59 105.37 10/11/2024 08:09:15 -66.90,-138.60 105.38 0.93 14
5 10/11/2024 08:59:38 67.82, 29.81 75.46 10/11/2024 08:59:37 67.83, 29.83 75.46 1.06 1
6 10/11/2024 09:50:04 -69.79,-160.17 102.77 10/11/2024 09:49:43 -69.77,-160.22 102.79 3.19 21
7 10/11/2024 10:40:46 70.42, 8.11 77.82 10/11/2024 10:40:10 70.42, 8.11 77.83 0.17 36
8 10/11/2024 11:31:28 -71.52, 177.27 101.16 10/11/2024 11:30:31 -71.52, 177.28 101.15 0.83 57



Historial Predications of SNOs between NOAA-19 and METOP-C
